Torna al catalogo

STARLINK-2426

AttivoComunicazioniVLEO
NORAD 47836·PAYLOAD·🇺🇸 United States

Lanciato Mar 11, 2021 da Cape Canaveral Space Force Station

Loading…

Prossimi Passaggi (prossime 24 ore)

TLE

AggiornatoSource: CelesTrak SupGP

Epoca: Sep 14, 2026, 21:09 UTC

1 47836C 21018BB  26257.88173611  .00024055  00000+0  77271-3 0  2576
2 47836  53.1587  84.5457 0001207  96.8351  30.3185 15.31724356    12

Traccia STARLINK-2426 in tempo reale con AllMySat

Download on the App Store